SL-8 DEB, 2934

Orbit data source: Space-Track

SL-8 DEB, 2934 is space debris in LEO originally from a launch on Mon, 15 Mar 1965 UTC launched from the Tyuratam Missile And Space Complex (TTMTR). Debris objects in space refer to the collection of defunct objects orbiting the Earth. Examples of debris include non-operational satellites, rocket bodies, and fragments generated from explosions, collisions, or faulty payload assembly.

Loading next visibility...
Identifier
2934, 1965-020EM
Orbit
LEO
Last TLE update
1 day ago
Origin
Manufacturer
Unknown
Mission
Spacecraft
Bus & Motor
Unknown
Mass
Unknown
Launch date (UTC)
1965-03-15 (60 years ago)
Launch vehicle
Unknown
Launch site
Tyuratam Missile And Space Complex (TTMTR)
Object type
Payload
Rocket body
Debris
Shape & HBR
Unknown
Radar Cross Section
Small (<0.1 m²)

Expand to show TLE details & history

TLE from 1 day ago
0 SL-8 DEB
1  2934U 65020EM  25187.93578354  .00000390  00000-0  25101-2 0  9991
2  2934  55.5952  33.0198 0358843 117.0507 359.1034 12.50841326659318
Epoch: 2025-07-06T22:27Z
TLE epoch observation values (Epoch: 2025-07-06T22:27:31.697Z)
Latitude
47.9484°
Longitude
-98.06904°
Altitude
1,185.391 km
Speed
7.395 km/s
True Right ascension
10h 55m 51s
True Declination
47° 47' 13"
Sunlit
Object was in daylight at epoch
Visualization orbit readout
Latitude
-14.45438°
Longitude
-42.67052°
Altitude
1,398.788 km
Speed
7.191 km/s
Apparent Right ascension
12h 08m 26s
Apparent Declination
-37° 37' 25"
Sunlit
Object is in daylight
Visualization observer readout
Local Sidereal Time
19:34:14
Azimuth
249.041° W
Elevation
-37.87°
Doppler factor
1
Orbital elements
Apogee altitude
1,742.161 km
Perigee altitude
1,179.567 km
Semi-major axis
7,839.001 km
Eccentricity
0.03588
Inclination
55.5952°
RAAN
33.0198°
Arg. of periapsis
117.0507°
True anomaly
Unknown
Mean anomaly
359.1034°
Eccentric anomaly
Unknown
Mean motion
3.12717 °/min
Orbital period
115.12 mins
BSTAR
0.0025101
Loading maneuver chart data...
Loading SW <> Apogee altitude chart data...
Loading historical data...
Loading historical data...
Loading historical data...
Loading historical data...
Loading historical data...
Loading historical data...
Loading historical data...

SL-8 DEB Visibility forecast

Observer location: undefined°, undefined°

Span
Click to sort rows by Start time (UTC) header in descending order
Start Az.
Max El. time (UTC)
Max El. Az.
Max El.
End time (UTC)
End Az.
13 mins2025-07-08 14:13:41.116Z174.106° S2025-07-08 14:20:41.116Z121.399° SE25.193°2025-07-08 14:26:41.116Z69.519° E
15 mins2025-07-08 16:12:41.116Z230.699° WSW2025-07-08 16:20:41.116Z338.937° N44.396°2025-07-08 16:27:41.116Z44.322° NE
12 mins2025-07-08 18:15:41.116Z284.238° WNW2025-07-08 18:21:41.116Z339.736° N27.237°2025-07-08 18:27:41.116Z37.985° NE
10 mins2025-07-08 20:19:41.116Z323.404° NNW2025-07-08 20:24:41.116Z13.624° NNE23.045°2025-07-08 20:29:41.116Z59.793° ENE
12 mins2025-07-08 22:20:41.116Z324.323° NNW2025-07-08 22:25:41.116Z23.874° NE38.082°2025-07-08 22:32:41.116Z109.291° ESE
12 mins2025-07-09 00:20:41.116Z297.234° NW2025-07-09 00:25:41.116Z241.933° WSW33.798°2025-07-09 00:32:41.116Z167.954° S
|